• Join FlightAware (Why Join?)
  • Login
  • US Flag GB Flag 
10:26 EDT


 

Airport Tracker/Info


-or-


 

Live Flight TrackerFlight Track Log ✈ SWA1725 ✈ 21-Apr-2013 ✈ KSAN - KSFO

Flight Track Log - Related Links

Times and Time Zones

All times are in EDT time to prevent confusion due to time zone crossing. See the SWA1725 flight status page for this flight to view local times or setup timezone preferences in your user account.

Time Position Orientation Groundspeed Altitude Reporting Facility
EDT Latitude Longitude Course Direction KTS MPH feet Rate Location/Type
12:48 32.7667 -117.2500 320° Northwest 202 232 2,600  Level Southern California TRACON
12:49 32.7686 -117.2650 279° West 192 221 3,500 2,220 Climbing Los Angeles Center
12:50 32.8142 -117.3406 306° West 266 306 5,800 3,420 Climbing Los Angeles Center
12:51 32.8578 -117.4222 302° West 289 333 10,600 3,600 Climbing Los Angeles Center
12:52 32.9136 -117.5033 309° West 313 360 13,300 3,000 Climbing Los Angeles Center
12:53 33.0000 -117.5636 330° Northwest 356 410 16,800 3,240 Climbing Los Angeles Center
12:54 33.1212 -117.7378 320° Northwest  Level FlightAware Approximate
12:54 33.0669 -117.6589 310° West 375 432 20,100  Level Los Angeles Center
12:55 33.1467 -117.7803 308° West 387 445 23,500 3,000 Climbing Los Angeles Center
12:56 33.2089 -117.8919 304° West 400 460 26,300 2,460 Climbing Los Angeles Center
12:57 33.2817 -117.9978 309° West 409 471 28,700 1,980 Climbing Los Angeles Center
12:58 33.3581 -118.1044 311° West 418 481 30,500 1,980 Climbing Los Angeles Center
12:59 33.4344 -118.2144 310° West 427 491 32,900 2,220 Climbing Los Angeles Center
13:00 33.5100 -118.3222 310° West 422 486 35,100 1,980 Climbing Los Angeles Center
13:01 33.5858 -118.4311 310° West 420 483 37,100 1,800 Climbing Los Angeles Center
13:02 33.6767 -118.5608 310° West 416 479 38,900 1,380 Climbing Los Angeles Center
13:03 33.7506 -118.6664 310° West 410 472 40,000 480 Climbing Los Angeles Center
13:04 33.8222 -118.7681 310° West 400 460 40,000  Level Los Angeles Center
13:05 33.9042 -118.8633 316° Northwest 408 470 40,000  Level Los Angeles Center
13:06 33.9844 -118.9575 316° Northwest 403 464 40,000  Level Los Angeles Center
13:07 34.0636 -119.0511 316° Northwest 401 461 40,000  Level Los Angeles Center
13:08 34.1436 -119.1456 316° Northwest 402 463 40,000  Level Los Angeles Center
13:09 34.2383 -119.2567 316° Northwest 397 457 40,000  Level Los Angeles Center
13:10 34.3014 -119.3311 316° Northwest 397 457 40,000  Level Los Angeles Center
13:11 34.3950 -119.4450 315° West 398 458 40,000  Level Los Angeles Center
13:13 34.4742 -119.5394 315° West 399 459 40,000  Level Los Angeles Center
13:14 34.5544 -119.6339 316° Northwest 401 461 40,000  Level Los Angeles Center
13:15 34.6469 -119.7447 315° West 403 464 40,000  Level Los Angeles Center
13:16 34.7261 -119.8400 315° West 402 463 40,000  Level Los Angeles Center
13:17 34.8064 -119.9356 316° Northwest 403 464 40,000  Level Los Angeles Center
13:18 34.8856 -120.0319 315° West 402 463 40,000  Level Los Angeles Center
13:19 34.9606 -120.1228 315° West 402 463 40,000  Level Los Angeles Center
13:20 35.0558 -120.2383 315° West 405 466 40,000  Level Los Angeles Center
13:21 35.1350 -120.3347 315° West 405 466 40,000  Level Los Angeles Center
13:22 35.2136 -120.4319 315° West 405 466 40,000  Level Los Angeles Center
13:23 35.2942 -120.5289 316° Northwest 409 471 40,000  Level Los Angeles Center
13:24 35.3722 -120.6272 314° West 407 468 40,000  Level Los Angeles Center
13:25 35.4764 -120.7350 320° Northwest 410 472 40,000  Level Los Angeles Center
13:26 35.5667 -120.8203 322° Northwest 411 473 40,000  Level Los Angeles Center
13:27 35.6536 -120.9028 322° Northwest 408 470 40,000  Level Los Angeles Center
13:28 35.7431 -120.9894 322° Northwest 408 470 40,000  Level Los Angeles Center
13:29 35.8525 -121.0933 322° Northwest 411 473 40,000 -420 Level Los Angeles Center
13:30 35.9411 -121.1797 322° Northwest 411 473 39,200 -1,140 Descending Oakland Center
13:31 36.0306 -121.2667 322° Northwest 408 470 37,600 -2,460 Descending Oakland Center
13:32 36.1414 -121.3717 323° Northwest 416 479 34,300 -3,000 Descending Oakland Center
13:33 36.2325 -121.4592 322° Northwest 414 476 31,500 -2,580 Descending Oakland Center
13:34 36.3219 -121.5472 322° Northwest 408 470 29,100 -2,340 Descending Oakland Center
13:35 36.4114 -121.6353 322° Northwest 408 470 26,800 -2,340 Descending Oakland Center
13:36 36.4997 -121.7239 321° Northwest 404 465 24,400 -2,400 Descending Oakland Center
13:37 36.5667 -121.7833 325° Northwest 391 450 22,800 -2,340 Descending Northern Cal TRACON
13:38 36.6500 -121.8667 321° Northwest 377 434 20,600 -2,040 Descending Northern Cal TRACON
13:39 36.7333 -121.9500 321° Northwest 369 425 18,800 -1,920 Descending Northern Cal TRACON
13:40 36.8167 -121.9833 342° North 352 405 16,800 -2,100 Descending Northern Cal TRACON
13:41 36.9167 -122.0000 352° North 342 394 14,700 -2,040 Descending Northern Cal TRACON
13:41 36.9453 -122.0158 336° Northwest 338 389 13,800 -1,980 Descending Oakland Center
13:42 37.0347 -122.0397 348° North 329 379 11,800 -1,800 Descending Oakland Center
13:44 37.1217 -122.0614 349° North 319 367 10,200 -1,200 Descending Oakland Center
13:45 37.1967 -122.0817 348° North 281 323 9,400 -1,080 Descending Oakland Center
13:46 37.2681 -122.1008 348° North 265 305 8,100 -1,020 Descending Oakland Center
13:47 37.3439 -122.1208 348° North 229 264 7,400 -840 Descending Oakland Center
13:48 37.3975 -122.1353 348° North 199 229 6,500 -1,140 Descending Oakland Center
13:49 37.4486 -122.1369 359° North 189 217 5,200 -1,200 Descending Oakland Center
13:50 37.4989 -122.1411 356° North 188 216 4,100 -1,020 Descending Oakland Center
13:51 37.5361 -122.1825 319° Northwest 183 211 3,200 -1,080 Descending Oakland Center
13:52 37.5603 -122.2347 300° West 176 203 2,000 -1,080 Descending Oakland Center
13:53 37.5814 -122.2883 296° West 173 199 1,100 -840 Descending Oakland Center
13:54 37.5994 -122.3331 297° West 159 183 400 -540 Descending Oakland Center
13:55 37.6189 -122.3833 296° West 152 175 100 -300 Descending Oakland Center
13:57 37.6167 -122.3667 322° Northwest  Level FlightAware Approximate